Location: Ellingshausen
(50.5460°N, 10.4723°E)
Time: 00:54:06
(UTC+00:00)

GEOS 3 Rocket - Pass Details

Date: 18 January 2026
Orbit: 768 x 845 km, 115.0° (Epoch: 17 February)

Event Time Altitude Azimuth Distance (km) Brightness Sun altitude
Rises 04:53:54 0° 136° (SE) 3,312 7.6 -21.1°
Reaches altitude 10° 04:56:09 10° 136° (SE) 2,396 6.8 -20.8°
Maximum altitude 05:01:23 89° 224° (SW) 831 3.6 -19.9°
Enters shadow 05:04:17 28° 317° (NW) 1,503 4.6 -19.5°
